Location: Mercogliano
(40.9167°N, 14.7333°E)
Time: 14:56:32
(UTC+00:00)

Cosmos 1603 - Pass Details

Date: 18 September 2020
Orbit: 832 x 858 km, 71.0° (Epoch: 29 October)

Event Time Altitude Azimuth Distance (km) Brightness Sun altitude
Rises 18:24:06 0° 331° (NNW) 3,413 7.6 -15.6°
Reaches altitude 10° 18:26:37 10° 327° (NNW) 2,470 6.8 -16.1°
Maximum altitude 18:32:06 54° 252° (WSW) 1,018 4.4 -17.1°
Drops below altitude 10° 18:37:31 10° 176° (S) 2,439 5.9 -18.1°
Enters shadow 18:39:27 - 173° (S) 3,161 6.4 -18.4°
